TimeEST,TemperatureF,Dew PointF,Humidity,Sea Level PressureIn,VisibilityMPH,Wind Direction,Wind SpeedMPH,Gust SpeedMPH,PrecipitationIn,Events,Conditions,WindDirDegrees,DateUTC
12:56 AM,32.0,27.1,82,30.08,10.0,North,4.6,-,N/A,,Overcast,350,2012-11-05 05:56:00
1:56 AM,31.1,27.1,85,30.08,10.0,North,4.6,-,N/A,,Overcast,350,2012-11-05 06:56:00
2:56 AM,31.1,27.1,85,30.07,10.0,North,3.5,-,N/A,,Overcast,360,2012-11-05 07:56:00
3:56 AM,31.1,28.0,88,30.07,10.0,North,3.5,-,N/A,,Overcast,10,2012-11-05 08:56:00
4:07 AM,30.2,28.4,93,30.03,10.0,North,5.8,-,N/A,,Overcast,350,2012-11-05 09:07:00
4:31 AM,30.2,28.4,93,30.04,10.0,North,4.6,-,N/A,,Overcast,360,2012-11-05 09:31:00
4:56 AM,31.1,28.0,88,30.09,10.0,North,5.8,-,N/A,,Overcast,360,2012-11-05 09:56:00
5:56 AM,32.0,28.0,85,30.09,10.0,NNW,8.1,-,N/A,,Overcast,340,2012-11-05 10:56:00
6:09 AM,32.0,26.6,80,30.05,10.0,NNW,8.1,-,N/A,,Overcast,340,2012-11-05 11:09:00
6:56 AM,32.0,27.1,82,30.10,10.0,NNW,4.6,-,N/A,,Overcast,340,2012-11-05 11:56:00
7:56 AM,32.0,28.0,85,30.12,10.0,NW,8.1,-,0.00,,Overcast,320,2012-11-05 12:56:00
8:56 AM,32.0,28.0,85,30.13,10.0,North,6.9,-,N/A,,Overcast,360,2012-11-05 13:56:00
9:56 AM,31.1,28.0,88,30.14,2.0,North,4.6,-,0.00,Snow,Light Snow,10,2012-11-05 14:56:00
10:22 AM,32.0,28.4,87,30.10,4.0,North,6.9,-,0.00,Snow,Light Snow Showers,360,2012-11-05 15:22:00
10:56 AM,32.9,26.1,76,30.14,7.0,North,5.8,-,0.00,,Overcast,360,2012-11-05 15:56:00
11:56 AM,32.9,26.1,76,30.14,10.0,North,9.2,-,0.00,Snow,Light Snow,350,2012-11-05 16:56:00
12:56 PM,32.9,25.2,73,30.14,10.0,NW,6.9,-,0.00,Snow,Light Snow,310,2012-11-05 17:56:00
1:56 PM,32.0,25.2,76,30.14,10.0,NNW,9.2,-,0.00,Snow,Light Snow,340,2012-11-05 18:56:00
2:56 PM,32.9,25.2,73,30.15,10.0,NW,8.1,-,0.00,,Overcast,320,2012-11-05 19:56:00
3:56 PM,32.0,24.1,73,30.15,10.0,North,8.1,-,N/A,,Overcast,350,2012-11-05 20:56:00
4:56 PM,31.1,23.0,72,30.17,10.0,North,5.8,-,N/A,,Overcast,10,2012-11-05 21:56:00
5:56 PM,31.1,23.0,72,30.18,10.0,NNW,4.6,-,N/A,,Overcast,330,2012-11-05 22:56:00
6:56 PM,31.1,23.0,72,30.20,10.0,NNW,4.6,-,N/A,,Overcast,340,2012-11-05 23:56:00
7:56 PM,31.1,20.1,64,30.20,10.0,Calm,Calm,-,N/A,,Overcast,0,2012-11-06 00:56:00
8:56 PM,31.1,21.0,66,30.21,10.0,Calm,Calm,-,N/A,,Overcast,0,2012-11-06 01:56:00
9:56 PM,31.1,21.0,66,30.21,10.0,Calm,Calm,-,N/A,,Overcast,0,2012-11-06 02:56:00
10:56 PM,31.1,22.1,69,30.21,10.0,Calm,Calm,-,N/A,,Overcast,0,2012-11-06 03:56:00
11:56 PM,31.1,22.1,69,30.21,10.0,Calm,Calm,-,N/A,,Overcast,0,2012-11-06 04:56:00